Snowfall_Accumulation
0.0 0.0 0.0 0.0 0.0 0.0 0.0 0.0 0.0 0.0 0.0 0.0 0.0 0.0 0.0 0.0 0.0 0.0 0.0 0.0 0.0 0.0 0.0 0.0 0.0 0.0 0.0 0.0 0.0 0.0 0.0 0.0 0.0 0.0 0.0 0.0 0.0 0.0 0.0 0.0 0.0 0.0 0.0 0.0 0.0 0.0 0.0 0.0 0.0 0.0 0.0 0.0 0.0 0.0 0.0 0.0 0.0 0.0 0.0 0.0 0.0 0.0 0.0 0.0 0.0 0.0 0.0 0.0 0.0 0.0 0.0 0.0 0.0 0.0 0.0 0.0 0.0 0.0 0.0 0.0 0.0 0.0 0.0 0.0 0.0 0.0 0.0 0.0
0.0 0.0 0.0 0.0 0.0 0.0 0.0 0.0 0.0 0.0 0.0 0.0 0.0 0.0 0.0 0.0 0.0 0.0 0.0 0.0 0.0 0.0 0.0 0.0 0.0 0.0 0.0 0.0 0.0 0.0 0.0 0.0 0.0 0.0 0.0 0.0 0.0 0.0 0.0 0.0 0.0 0.0 0.0 0.0 0.0 0.0 0.0 0.0 0.0 0.0 0.0 0.0 0.0 0.0 0.0 0.0 0.0 0.0 0.0 0.0 0.0 0.0 0.0 0.0 0.0 0.0 0.0 0.0 0.0 0.0 0.0 0.0 0.0 0.0 0.0 0.0 0.0 0.0 0.0 0.0 0.0 0.0 0.0 0.0 0.0 0.0 0.0 0.0
0.0 0.0 0.0 0.0 0.0 0.0 0.0 0.0 0.0 0.0 0.0 0.0 0.0 0.0 0.0 0.0 0.0 0.0 0.0 0.0 0.0 0.0 0.0 0.0 0.0 0.0 0.0 0.0 0.0 0.0 0.0 0.0 0.0 0.0 0.0 0.0 0.0 0.0 0.0 0.0 0.0 0.0 0.0 0.0 0.0 0.0 0.0 0.0 0.0 0.0 0.0 0.0 0.0 0.0 0.0 0.0 0.0 0.0 0.0 0.0 0.0 0.0 0.0 0.0 0.0 0.0 0.0 0.0 0.0 0.0 0.0 0.0 0.0 0.0 0.0 0.0 0.0 0.0 0.0 0.0 0.0 0.0 0.0 0.0 0.0 0.0 0.0 0.0
0.0 0.0 0.0 0.0 0.0 0.0 0.0 0.0 0.0 0.0 0.0 0.0 0.0 0.0 0.0 0.0 0.0 0.0 0.0 0.0 0.0 0.0 0.0 0.0 0.0 0.0 0.0 0.0 0.0 0.0 0.0 0.0 0.0 0.0 0.0 0.0 0.0 0.0 0.0 0.0 0.0 0.0 0.0 0.0 0.0 0.0 0.0 0.0 0.0 0.0 0.0 0.0 0.0 0.0 0.0 0.0 0.0 0.0 0.0 0.0 0.0 0.0 0.0 0.0 0.0 0.0 0.0 0.0 0.0 0.0 0.0 0.0 0.0 0.0 0.0 0.0 0.0 0.0 0.0 0.0 0.0 0.0 0.0 0.0 0.0 0.0 0.0 0.0
0.0 0.0 0.0 0.0 0.0 0.0 0.0 0.0 0.0 0.0 0.0 0.0 0.0 0.0 0.0 0.0 0.0 0.0 0.0 0.0 0.0 0.0 0.0 0.0 0.0 0.0 0.0 0.0 0.0 0.0 0.0 0.0 0.0 0.0 0.0 0.0 0.0 0.0 0.0 0.0 0.0 0.0 0.0 0.0 0.0 0.0 0.0 0.0 0.0 0.0 0.0 0.0 0.0 0.0 0.0 0.0 0.0 0.0 0.0 0.0 0.0 0.0 0.0 0.0 0.0 0.0 0.0 0.0 0.0 0.0 0.0 0.0 0.0 0.0 0.0 0.0 0.0 0.0 0.0 0.0 0.0 0.0 0.0 0.0 0.0 0.0 0.0 0.0
0.0 0.0 0.0 0.0 0.0 0.0 0.0 0.0 0.0 0.0 0.0 0.0 0.0 0.0 0.0 0.0 0.0 0.0 0.0 0.0 0.0 0.0 0.0 0.0 0.0 0.0 0.0 0.0 0.0 0.0 0.0 0.0 0.0 0.0 0.0 0.0 0.0 0.0 0.0 0.0 0.0 0.0 0.0 0.0 0.0 0.0 0.0 0.0 0.0 0.0 0.0 0.0 0.0 0.0 0.0 0.0 0.0 0.0 0.0 0.0 0.0 0.0 0.0 0.0 0.0 0.0 0.0 0.0 0.0 0.0 0.0 0.0 0.0 0.0 0.0 0.0 0.0 0.0 0.0 0.0 0.0 0.0 0.0 0.0 0.0 0.0 0.0 0.0
0.0 0.0 0.0 0.0 0.0 0.0 0.0 0.0 0.0 0.0 0.0 0.0 0.0 0.0 0.0 0.0 0.0 0.0 0.0 0.0 0.0 0.0 0.0 0.0 0.0 0.0 0.0 0.0 0.0 0.0 0.0 0.0 0.0 0.0 0.0 0.0 0.0 0.0 0.0 0.0 0.0 0.0 0.0 0.0 0.0 0.0 0.0 0.0 0.0 0.0 0.0 0.0 0.0 0.0 0.0 0.0 0.0 0.0 0.0 0.0 0.0 0.0 0.0 0.0 0.0 0.0 0.0 0.0 0.0 0.0 0.0 0.0 0.0 0.0 0.0 0.0 0.0 0.0 0.0 0.0 0.0 0.0 0.0 0.0 0.0 0.0 0.0 0.0
0.0 0.0 0.0 0.0 0.0 0.0 0.0 0.0 0.0 0.0 0.0 0.0 0.0 0.0 0.0 0.0 0.0 0.0 0.0 0.0 0.0 0.0 0.0 0.0 0.0 0.0 0.0 0.0 0.0 0.0 0.0 0.0 0.0 0.0 0.0 0.0 0.0 0.0 0.0 0.0 0.0 0.0 0.0 0.0 0.0 0.0 0.0 0.0 0.0 0.0 0.0 0.0 0.0 0.0 0.0 0.0 0.0 0.0 0.0 0.0 0.0 0.0 0.0 0.0 0.0 0.0 0.0 0.0 0.0 0.0 0.0 0.0 0.0 0.0 0.0 0.0 0.0 0.0 0.0 0.0 0.0 0.0 0.0 0.0 0.0 0.0 0.0 0.0
0.0 0.0 0.0 0.0 0.0 0.0 0.0 0.0 0.0 0.0 0.0 0.0 0.0 0.0 0.0 0.0 0.0 0.0 0.0 0.0 0.0 0.0 0.0 0.0 0.0 0.0 0.0 0.0 0.0 0.1 0.0 0.0 0.0 0.0 0.0 0.0 0.0 0.0 0.0 0.0 0.0 0.0 0.0 0.0 0.0 0.0 0.0 0.0 0.0 0.0 0.0 0.0 0.0 0.0 0.0 0.0 0.0 0.0 0.0 0.0 0.0 0.0 0.0 0.0 0.0 0.0 0.0 0.0 0.0 0.0 0.0 0.0 0.0 0.0 0.0 0.0 0.0 0.0 0.0 0.0 0.0 0.0 0.0 0.0 0.0 0.0 0.0 0.0
0.0 0.0 0.0 0.0 0.0 0.0 0.0 0.0 0.0 0.0 0.0 0.0 0.0 0.0 0.0 0.0 0.0 0.0 0.0 0.0 0.0 0.0 0.0 0.0 0.0 0.0 0.0 0.0 0.0 0.4 0.0 0.0 0.0 0.0 0.0 0.0 0.0 0.0 0.0 0.0 0.0 0.0 0.0 0.0 0.0 0.0 0.0 0.0 0.0 0.0 0.0 0.0 0.0 0.0 0.0 0.0 0.0 0.0 0.0 0.0 0.0 0.0 0.0 0.0 0.0 0.0 0.0 0.0 0.0 0.0 0.0 0.0 0.0 0.0 0.0 0.0 0.0 0.0 0.0 0.0 0.0 0.0 0.0 0.0 0.0 0.0 0.0 0.0
0.0 0.0 0.0 0.0 0.0 0.0 0.0 0.0 0.0 0.0 0.0 0.0 0.0 0.0 0.0 0.0 0.0 0.0 0.0 0.0 0.0 0.0 0.0 0.0 0.0 0.0 0.0 0.0 0.1 0.1 0.0 0.0 0.0 0.0 0.0 0.0 0.0 0.0 0.0 0.0 0.0 0.0 0.0 0.0 0.0 0.0 0.0 0.0 0.0 0.0 0.0 0.0 0.0 0.0 0.0 0.0 0.0 0.0 0.0 0.0 0.0 0.0 0.0 0.0 0.0 0.0 0.0 0.0 0.0 0.0 0.0 0.0 0.0 0.0 0.0 0.0 0.0 0.0 0.0 0.0 0.0 0.0 0.0 0.0 0.0 0.0 0.0 0.0
0.0 0.0 0.0 0.0 0.0 0.0 0.0 0.0 0.0 0.0 0.0 0.0 0.0 0.0 0.0 0.0 0.0 0.0 0.0 0.0 0.0 0.0 0.0 0.0 0.0 0.0 0.0 0.0 0.1 0.0 0.0 0.0 0.0 0.0 0.0 0.0 0.0 0.0 0.0 0.0 0.0 0.0 0.0 0.0 0.0 0.0 0.0 0.0 0.0 0.0 0.0 0.0 0.0 0.0 0.0 0.0 0.0 0.0 0.0 0.0 0.0 0.0 0.0 0.0 0.0 0.0 0.0 0.0 0.0 0.0 0.0 0.0 0.0 0.0 0.0 0.0 0.0 0.0 0.0 0.0 0.0 0.0 0.0 0.0 0.0 0.0 0.0 0.0
0.0 0.0 0.0 0.0 0.0 0.0 0.0 0.0 0.0 0.0 0.0 0.0 0.0 0.0 0.0 0.0 0.0 0.0 0.0 0.0 0.0 0.0 0.0 0.0 0.0 0.0 0.0 0.3 0.0 0.0 0.0 0.0 0.0 0.0 0.0 0.0 0.0 0.0 0.0 0.0 0.0 0.0 0.0 0.0 0.0 0.0 0.0 0.0 0.0 0.0 0.0 0.0 0.0 0.0 0.0 0.0 0.0 0.0 0.0 0.0 0.0 0.0 0.0 0.0 0.0 0.0 0.0 0.0 0.0 0.0 0.0 0.0 0.4 0.0 0.0 0.0 0.0 0.0 0.0 0.3 0.2 0.5 0.6 0.0 0.1 0.0 0.0 0.0
0.0 0.0 0.0 0.0 0.0 0.0 0.0 0.0 0.0 0.0 0.0 0.0 0.0 0.0 0.0 0.0 0.0 0.0 0.0 0.0 0.0 0.0 0.0 0.0 0.0 0.0 0.0 0.0 0.0 0.0 0.0 0.0 0.0 0.0 0.0 0.0 0.0 0.0 0.0 0.0 0.0 0.0 0.0 0.0 0.0 0.0 0.0 0.0 0.0 0.0 0.0 0.0 0.0 0.0 0.0 0.0 0.0 0.0 0.0 0.0 0.0 0.0 0.0 0.0 0.0 0.0 0.0 0.0 0.0 0.0 0.0 1.0 0.2 0.1 0.0 0.0 0.0 0.0 0.7 0.4 0.6 0.7 1.3 1.1 0.8 0.1 0.0 0.0
0.0 0.0 0.0 0.0 0.0 0.0 0.0 0.0 0.0 0.0 0.0 0.0 0.0 0.0 0.0 0.0 0.0 0.0 0.0 0.0 0.0 0.0 0.0 0.0 0.0 0.0 0.1 0.0 0.0 0.0 0.0 0.0 0.0 0.0 0.0 0.0 0.0 0.0 0.0 0.0 0.0 0.0 0.0 0.0 0.0 0.0 0.0 0.0 0.0 0.0 0.0 0.0 0.0 0.0 0.0 0.0 0.0 0.0 0.5 0.5 0.0 0.0 0.0 0.0 0.0 0.0 0.0 0.0 0.0 0.0 1.4 4.7 2.5 0.6 0.0 0.0 0.0 0.1 1.1 0.8 0.8 0.4 0.4 1.5 1.1 0.5 0.2 0.0
0.0 0.0 0.0 0.0 0.0 0.0 0.0 0.0 0.0 0.0 0.0 0.0 0.0 0.0 0.0 0.0 0.0 0.0 0.0 0.0 0.0 0.0 0.0 0.0 0.0 0.0 0.0 0.1 0.0 0.0 0.0 0.0 0.0 0.0 0.0 0.0 0.0 0.0 0.0 0.0 0.0 0.0 0.0 0.0 0.0 0.0 0.0 0.0 0.0 0.0 0.0 0.0 0.0 0.0 0.1 0.2 0.2 0.1 0.7 0.2 0.2 0.1 0.0 0.0 0.0 0.0 0.0 0.0 0.0 0.0 1.9 1.3 3.8 1.6 0.1 0.0 0.0 0.4 1.5 2.0 1.7 0.7 0.4 0.5 1.2 0.8 0.3 0.0
0.0 0.0 0.0 0.0 0.0 0.0 0.0 0.0 0.0 0.0 0.0 0.0 0.0 0.0 0.0 0.0 0.0 0.0 0.0 0.0 0.0 0.0 0.0 0.0 0.0 0.0 1.1 0.0 0.0 0.0 0.0 0.0 0.0 0.0 0.0 0.0 0.0 0.0 0.0 0.0 0.0 0.0 0.0 0.0 0.0 0.0 0.0 0.0 0.0 0.0 0.0 0.3 0.1 0.1 0.8 1.8 2.3 0.2 0.2 0.5 0.1 0.0 0.0 0.0 0.0 0.0 0.0 0.0 4.2 0.0 3.1 4.1 5.1 2.5 1.6 0.1 0.2 0.9 1.6 2.1 2.3 2.0 1.0 0.9 0.7 1.8 1.3 0.5
0.0 0.0 0.0 0.0 0.0 0.0 0.0 0.0 0.0 0.0 0.0 0.0 0.0 0.0 0.0 0.0 0.0 0.0 0.0 0.0 0.0 0.0 0.0 0.0 0.0 0.0 0.1 0.0 0.0 0.0 0.0 0.0 0.0 0.0 0.0 0.0 0.0 0.0 0.0 0.0 0.0 0.0 0.0 0.0 0.0 0.0 0.0 0.0 0.0 0.2 0.2 0.1 0.3 1.2 2.7 7.5 1.0 0.3 0.3 0.7 0.7 0.0 0.0 0.0 0.0 0.0 0.0 0.0 8.4 2.9 1.3 2.7 3.2 2.5 2.6 1.6 0.2 1.1 1.5 1.6 2.4 2.6 2.0 1.0 0.5 0.9 1.2 1.6
0.0 0.0 0.0 0.0 0.0 0.0 0.0 0.0 0.0 0.0 0.0 0.0 0.0 0.0 0.0 0.0 0.0 0.0 0.0 0.0 0.0 0.1 0.1 0.5 0.2 3.1 2.6 0.3 0.0 0.0 0.0 0.0 0.0 0.0 0.0 0.0 0.0 0.0 0.0 0.0 0.0 0.0 0.0 0.0 0.0 0.0 0.0 0.1 0.1 1.3 1.0 0.6 0.2 0.1 0.2 0.2 0.8 0.0 0.0 0.0 0.2 0.2 0.1 0.0 0.0 0.0 0.0 1.1 1.6 3.5 3.4 3.8 3.5 3.2 3.0 1.8 0.5 1.3 1.5 1.2 1.6 1.9 2.6 1.9 1.6 1.4 1.1 1.3
0.0 0.0 0.0 0.0 0.0 0.0 0.0 0.0 0.0 0.0 0.0 0.0 0.0 0.0 0.0 0.0 0.0 0.0 0.0 0.0 0.0 0.0 0.0 0.1 0.0 0.0 0.0 0.0 0.0 0.0 0.0 0.0 0.0 0.0 0.0 0.0 0.0 0.0 0.0 0.0 0.0 0.0 0.1 0.5 0.2 0.0 0.0 0.5 1.1 0.5 0.1 0.0 0.0 0.0 0.0 0.1 0.1 0.5 0.0 0.2 0.5 0.3 0.1 1.4 2.0 0.0 0.0 0.3 3.2 3.9 6.6 4.5 4.9 5.8 4.4 2.4 1.5 1.2 1.3 1.6 1.4 1.3 1.9 2.5 2.2 2.0 2.0 2.4
0.0 0.0 0.0 0.0 0.0 0.0 0.0 0.0 0.0 0.0 0.0 0.0 0.0 0.0 0.3 0.6 1.0 2.6 0.1 0.0 0.0 0.0 0.0 0.0 0.0 0.0 0.0 0.0 0.0 0.0 0.0 0.0 0.0 0.0 0.0 0.0 0.0 0.0 0.1 0.1 0.2 0.4 0.1 0.0 0.6 0.4 0.0 2.0 0.1 0.0 0.0 0.0 0.0 0.0 0.0 0.1 0.6 0.4 1.3 1.1 1.4 0.3 4.7 0.9 1.4 0.0 0.0 2.8 3.3 1.9 3.4 5.3 6.5 5.8 5.7 2.5 2.2 2.9 1.7 1.6 1.4 1.2 0.9 1.2 2.2 2.6 1.8 2.7
0.0 0.0 0.0 0.0 0.0 0.0 0.0 0.0 0.0 0.0 0.0 0.0 0.0 0.0 0.0 0.0 0.0 0.0 0.5 1.5 0.0 0.0 0.0 0.0 0.0 0.0 0.0 0.0 0.0 0.0 0.0 0.0 0.0 0.0 0.0 0.0 0.0 0.1 0.1 0.0 0.7 0.6 0.0 0.0 0.4 5.0 3.5 1.1 0.0 0.0 0.0 0.0 0.0 0.0 0.0 0.1 0.8 0.2 0.3 0.2 2.1 4.9 1.4 1.3 2.9 0.1 0.0 2.4 3.5 1.5 3.1 7.1 7.1 6.4 5.5 5.3 4.0 3.6 2.0 1.4 1.2 1.1 1.2 1.0 1.2 1.9 2.2 2.2
0.0 0.0 0.0 0.0 0.0 0.0 0.0 0.0 0.0 0.0 0.0 0.0 0.0 0.0 0.0 0.0 0.0 0.0 0.0 1.5 1.1 0.0 0.0 0.0 0.0 0.1 0.0 0.0 0.0 0.0 0.0 0.0 0.0 0.0 0.0 0.0 0.1 0.0 0.5 0.6 1.1 1.2 0.3 0.1 2.4 5.7 6.0 0.2 0.0 0.0 0.0 0.0 0.0 0.0 0.0 0.0 1.0 1.2 2.2 1.3 1.5 1.6 0.9 5.4 1.8 1.7 1.0 0.3 2.8 1.5 2.3 5.9 7.0 6.2 5.9 4.8 4.4 3.2 2.1 1.6 1.1 0.9 0.9 0.9 1.1 0.9 1.8 2.4
0.0 0.0 0.0 0.0 0.0 0.0 0.0 0.0 0.0 0.0 0.0 0.0 0.0 0.0 0.0 0.0 0.0 0.0 0.1 4.8 4.3 0.0 0.0 0.0 0.0 0.0 0.0 0.0 0.0 0.0 0.0 0.0 0.0 0.1 0.0 0.0 0.1 0.2 0.1 0.0 0.8 0.7 1.6 0.4 0.8 1.9 1.0 0.6 0.0 0.0 0.0 0.0 0.0 0.1 0.1 0.1 1.0 0.8 0.8 0.7 0.5 1.7 3.4 0.8 2.6 0.9 2.0 0.3 2.5 0.8 4.8 5.2 7.5 9.9 9.3 5.6 2.8 3.3 2.6 1.8 1.5 1.2 1.0 0.7 0.7 0.7 0.7 2.0
0.0 0.0 0.0 0.0 0.0 0.0 0.0 0.0 0.0 0.0 0.0 0.0 0.0 0.0 0.0 0.0 0.0 0.0 0.5 1.0 1.0 1.3 0.0 0.0 0.0 0.0 0.0 0.0 0.0 0.0 0.0 0.0 0.0 0.0 0.0 0.0 1.3 1.9 0.4 0.1 1.0 2.4 3.2 0.1 0.8 1.3 0.4 0.2 0.3 0.0 0.0 0.0 0.1 0.4 0.1 0.1 0.7 0.8 0.3 0.3 0.5 1.2 3.4 1.6 1.3 0.7 6.5 6.3 0.3 0.1 7.2 17.7 9.0 9.4 11.4 9.4 5.3 3.6 2.6 2.3 1.7 1.4 1.3 1.1 1.1 1.4 0.7 0.9
0.0 0.0 0.0 0.0 0.0 0.0 0.0 0.0 0.0 0.0 0.0 0.0 0.0 0.0 0.0 0.0 0.0 0.0 0.7 21.5 31.1 1.1 0.1 2.4 0.0 0.3 0.0 0.0 0.0 0.0 0.0 0.6 0.0 0.0 0.0 0.0 0.0 0.0 1.4 2.1 1.5 3.9 1.4 0.9 0.6 0.7 0.3 0.0 0.1 0.9 0.1 0.0 0.0 0.1 0.0 0.0 0.3 1.0 0.2 0.0 0.1 1.2 2.9 1.5 0.8 1.4 9.8 7.9 1.2 0.0 7.6 14.2 8.2 9.3 9.2 9.0 8.3 5.9 2.7 2.5 1.6 1.2 1.2 1.2 1.2 1.3 1.2 1.6
0.0 0.0 0.0 0.0 0.0 0.0 0.0 0.5 0.0 0.0 0.0 0.0 0.0 0.0 0.0 0.0 0.0 0.0 4.6 37.9 42.9 0.7 7.8 0.1 0.0 0.6 0.0 0.0 0.0 0.1 9.2 4.1 0.0 0.0 0.0 0.0 0.0 0.0 3.0 2.5 1.0 0.5 1.0 1.4 2.7 5.6 2.4 0.2 0.1 0.2 0.4 0.2 0.1 0.2 0.0 0.0 0.7 0.6 0.2 0.0 0.0 0.3 0.9 1.3 0.9 1.3 5.8 0.7 1.3 1.0 2.3 9.3 9.3 9.1 6.3 6.0 7.7 8.0 5.4 3.2 2.3 1.2 0.8 0.8 0.8 0.9 1.2 1.7
0.0 0.0 0.0 0.0 0.0 0.0 0.0 0.0 0.0 0.0 0.0 0.0 0.0 0.0 0.0 0.0 0.0 0.0 5.7 89.5 79.4 3.7 5.7 1.9 0.0 0.0 0.0 0.0 0.0 0.3 1.1 4.3 1.0 0.4 0.0 0.0 0.0 0.1 0.5 3.9 2.1 2.8 2.2 2.4 11.6 10.9 1.5 1.6 0.1 0.3 0.4 0.3 0.2 0.1 0.0 0.0 0.2 0.6 0.6 0.1 0.0 0.0 0.1 1.1 1.9 3.6 3.1 4.6 9.3 4.2 3.0 7.9 9.4 8.8 4.7 4.8 8.3 8.1 7.5 5.1 3.0 2.0 1.0 0.5 0.6 0.5 0.6 0.8
0.0 0.0 0.0 0.0 0.0 0.0 0.0 0.0 0.0 0.1 0.0 0.0 0.0 0.0 0.0 0.0 0.0 2.0 47.0 95.0 22.7 22.2 0.0 1.5 0.0 0.0 0.0 0.0 0.4 0.2 0.8 0.1 3.8 0.5 0.0 0.0 0.0 0.0 4.0 1.8 2.5 3.0 2.3 2.9 3.7 5.3 2.4 1.4 0.4 0.2 0.4 0.3 0.0 0.0 0.0 0.0 0.2 0.2 1.5 0.6 0.4 1.0 0.8 3.0 2.5 4.4 4.5 10.2 17.5 6.8 5.6 10.1 12.5 9.0 6.4 3.9 4.5 6.3 6.1 5.3 3.9 2.3 1.3 0.8 0.6 0.5 0.5 0.6
0.0 0.0 0.0 0.0 0.0 0.0 0.0 0.0 0.2 0.0 0.0 0.0 0.0 0.0 0.0 0.0 2.4 38.1 94.3 118.4 10.0 31.4 3.7 2.5 0.8 2.5 0.1 2.0 2.3 1.0 4.3 3.8 6.8 7.3 1.1 1.4 0.0 0.0 0.7 0.0 3.2 7.0 7.9 1.9 2.5 2.4 11.4 0.3 0.5 1.1 0.4 0.1 0.0 0.0 0.0 0.0 0.0 0.0 1.6 2.0 4.0 3.2 4.4 8.3 7.2 6.2 15.4 24.3 13.9 5.8 4.2 3.8 10.8 7.6 6.8 4.5 3.1 2.7 3.5 3.8 3.4 3.0 2.2 1.3 0.7 0.6 0.7 0.8
0.0 0.0 0.0 0.0 0.0 0.0 0.0 0.0 0.0 0.0 0.0 0.0 0.0 0.0 0.0 2.6 30.0 72.9 111.1 53.3 16.2 16.3 2.2 2.1 4.3 0.2 4.0 3.1 9.5 2.9 6.8 5.7 7.5 5.9 12.4 2.9 5.0 1.5 3.5 6.2 2.8 10.2 7.8 5.0 5.7 3.3 6.8 2.4 2.3 0.3 0.0 0.0 0.0 0.0 0.0 0.0 0.0 0.1 4.4 6.1 5.5 8.3 4.3 10.4 17.7 13.6 23.6 24.4 10.1 6.2 5.1 3.9 11.1 7.3 3.9 1.5 0.7 1.1 1.7 2.9 2.5 2.7 3.4 4.5 3.1 1.9 1.8 2.1
0.0 0.0 0.0 0.0 0.0 0.0 0.0 0.0 0.0 0.0 0.0 0.0 0.0 0.7 1.6 66.9 37.9 85.6 77.2 0.3 28.9 16.4 11.2 13.6 4.6 4.1 4.1 2.4 4.8 4.7 6.5 7.5 6.0 7.8 7.4 8.3 8.5 9.0 6.1 16.4 11.3 35.8 33.9 15.9 16.4 4.4 4.7 4.6 1.9 1.4 0.0 0.0 0.1 0.5 2.5 3.8 0.5 1.5 7.9 9.3 10.8 20.2 14.3 22.1 21.5 34.5 23.3 14.7 6.1 4.1 4.6 10.0 8.3 5.1 1.6 1.1 0.8 0.8 0.6 1.2 2.6 3.1 3.1 4.0 3.9 3.9 5.1 4.7
0.0 0.0 0.0 0.0 0.0 0.0 0.0 0.0 0.0 0.0 0.0 0.0 0.3 4.0 25.9 76.0 129.3 42.7 43.4 20.5 26.0 8.9 10.8 1.9 4.3 6.7 5.6 6.7 9.7 6.1 4.5 8.3 3.8 5.9 6.0 6.2 8.7 6.5 4.0 5.3 21.9 8.7 32.8 12.4 11.4 12.4 6.6 6.3 5.9 3.0 0.1 0.0 0.1 1.5 2.5 4.8 4.5 2.3 5.1 10.9 14.2 28.4 21.4 18.3 14.2 13.6 9.6 5.0 4.7 4.4 1.4 5.0 5.0 4.1 1.3 1.8 1.3 1.0 1.1 1.0 0.9 1.8 4.3 3.0 3.3 3.6 3.7 3.5
0.0 0.0 0.0 0.0 0.0 0.0 0.0 0.0 0.0 0.0 0.1 0.0 2.9 15.9 38.6 94.9 86.3 7.4 18.0 16.1 22.6 1.7 2.7 2.8 2.9 5.3 8.7 10.1 9.5 5.1 8.5 4.0 6.3 5.7 2.9 5.3 4.1 11.2 9.5 3.1 6.4 9.7 15.2 14.7 18.5 13.4 20.7 21.6 6.6 5.2 4.3 0.0 0.0 0.1 0.5 0.9 0.5 0.7 4.5 6.6 8.4 8.5 8.5 13.8 9.3 12.9 9.6 3.7 2.5 2.1 6.8 9.4 4.1 4.1 1.0 0.9 1.3 1.1 1.0 0.9 1.0 0.7 0.9 2.0 2.3 1.6 1.7 1.5
0.0 0.0 0.0 0.0 0.0 0.0 0.0 0.0 0.0 0.0 0.1 1.0 10.8 36.7 114.2 97.2 32.3 40.7 21.1 14.6 7.6 2.2 2.5 8.4 5.9 6.8 11.9 7.5 7.2 5.6 5.3 13.3 3.7 5.5 3.9 5.8 13.4 7.5 9.4 8.8 3.5 3.8 14.9 21.3 15.7 12.2 8.2 10.1 4.4 2.7 0.7 0.1 0.1 0.0 0.0 1.0 1.3 8.7 8.1 6.3 9.5 6.9 2.7 8.2 5.6 5.0 4.8 2.7 3.7 4.7 4.3 3.6 2.0 1.0 0.4 0.4 0.6 0.7 0.7 0.9 0.9 1.0 0.9 1.0 1.2 1.0 1.0 1.0
0.0 0.0 0.0 0.1 0.0 0.0 0.0 0.0 0.0 0.0 0.3 4.3 30.0 101.9 97.2 29.9 40.9 14.4 11.7 1.0 1.0 4.6 4.8 3.5 10.1 11.9 17.0 11.1 3.6 9.0 2.5 10.0 5.4 5.3 8.7 5.6 5.1 8.2 4.2 3.5 4.9 5.1 12.3 17.6 15.2 22.4 11.2 11.3 4.8 1.3 0.0 6.3 0.1 0.1 0.6 0.9 11.9 4.2 2.0 8.9 5.8 2.8 3.9 7.8 5.2 3.5 5.4 7.2 5.8 2.3 1.9 1.4 0.5 0.7 0.3 0.2 0.2 0.3 0.3 0.3 0.4 0.4 0.4 0.4 0.4 0.4 0.4 0.2
0.1 0.0 0.7 0.1 0.0 0.0 0.0 0.0 0.0 0.1 0.6 6.8 38.0 94.8 25.9 19.8 6.2 4.9 0.2 0.7 0.8 2.0 3.2 16.8 23.5 13.4 22.0 18.7 14.0 7.9 7.1 2.5 9.1 5.8 15.3 3.7 13.8 5.5 6.8 4.4 2.1 4.8 7.2 8.0 11.6 9.6 19.3 12.5 5.0 1.0 0.6 1.3 0.0 0.2 0.2 0.8 5.3 5.0 7.3 2.4 1.8 3.7 8.8 11.3 17.3 8.8 11.4 12.5 6.4 2.2 1.8 1.7 1.1 3.1 0.5 1.6 0.3 0.1 0.2 0.1 0.1 0.1 0.1 0.1 0.1 0.1 0.1 0.1
0.2 0.2 0.2 0.3 0.0 0.0 0.0 0.0 0.0 0.1 3.1 18.2 55.9 19.4 11.6 13.5 1.0 0.9 0.0 0.1 0.2 0.7 6.3 7.7 11.4 5.7 15.9 15.5 17.4 9.9 7.7 6.8 8.8 5.4 11.3 4.6 18.1 3.0 4.0 4.8 3.8 5.9 5.2 4.9 9.2 7.2 5.1 12.6 5.6 4.0 0.8 0.7 0.4 0.2 0.5 0.2 0.6 2.1 3.1 2.9 3.2 26.3 14.0 9.6 18.4 32.8 20.3 20.6 9.0 2.3 1.7 1.9 1.6 2.2 1.1 0.2 0.1 0.1 0.0 0.0 0.0 0.0 0.0 0.0 0.0 0.0 0.0 0.0
0.3 0.9 3.9 0.2 0.0 0.0 0.0 0.0 0.1 0.7 10.9 46.2 49.3 34.6 13.1 8.3 0.4 1.1 0.0 0.0 0.0 1.0 3.3 2.3 8.7 8.2 8.3 12.1 10.2 12.2 7.6 11.9 6.5 5.3 10.2 10.7 10.1 6.9 3.0 5.0 6.0 3.9 4.3 3.3 5.5 5.6 4.1 12.8 8.3 2.6 0.4 3.9 5.7 6.2 14.8 7.5 1.9 1.5 1.1 3.1 4.8 4.8 10.0 20.2 10.0 6.8 8.9 13.7 17.1 7.3 2.6 3.4 1.4 0.9 0.4 0.2 0.2 0.1 0.0 0.1 0.0 0.0 0.0 0.0 0.0 0.0 0.0 0.0
2.6 7.0 8.4 0.0 0.0 0.0 0.0 0.0 1.4 6.4 25.1 67.6 32.5 19.6 4.5 13.2 2.2 0.1 0.0 0.1 0.8 1.5 2.3 3.2 2.0 7.7 5.7 6.3 6.2 13.9 9.6 7.0 7.4 11.3 5.0 9.2 4.3 3.7 3.8 1.6 2.0 1.6 1.4 2.0 3.4 3.4 10.8 4.7 18.2 7.8 2.4 1.2 10.6 4.3 4.2 5.5 7.7 6.6 8.8 17.9 7.5 7.6 10.2 10.9 15.3 12.9 12.7 14.2 7.7 6.9 6.1 2.3 0.3 0.0 0.1 0.1 0.0 0.0 0.0 0.1 0.1 0.0 0.0 0.0 0.0 0.0 0.0 0.0
0.8 9.3 7.6 0.0 0.0 0.0 0.0 1.5 17.1 44.2 40.8 19.1 10.3 10.8 6.5 7.6 3.0 0.2 0.0 0.0 0.3 0.2 1.6 1.8 2.1 4.2 4.6 5.4 7.3 3.8 10.6 10.2 8.5 13.1 8.9 7.2 3.7 7.8 4.1 2.9 1.0 1.8 0.6 0.9 2.5 4.0 12.5 16.1 17.1 11.7 11.6 16.9 1.7 1.8 1.3 1.9 1.7 6.6 8.8 11.0 9.9 11.2 13.4 23.3 22.2 4.1 6.4 14.6 14.8 12.1 7.7 1.6 0.2 0.2 0.0 0.1 0.0 0.0 0.3 0.1 0.1 0.0 0.0 0.0 0.0 0.0 0.0 0.1
9.8 27.6 11.9 0.0 0.0 0.1 2.0 33.8 37.7 18.6 29.1 29.2 24.2 8.4 7.8 0.5 2.0 2.4 0.0 0.4 1.3 0.8 0.1 9.9 1.8 3.7 2.9 2.4 2.5 3.3 7.7 9.9 6.9 5.9 7.0 7.0 5.3 4.8 2.8 1.2 1.2 0.9 2.9 3.9 2.7 1.9 4.1 14.5 15.1 18.1 10.0 7.0 0.9 1.0 0.5 0.7 1.2 2.2 3.7 6.3 6.5 13.0 12.5 21.9 32.8 12.5 10.5 10.7 5.8 10.0 18.7 5.7 0.1 1.4 0.1 0.1 0.0 0.1 0.0 0.0 0.5 0.0 0.0 0.0 0.0 0.0 0.0 0.1
14.0 18.6 0.1 0.0 0.0 0.1 5.1 29.6 24.0 34.1 31.7 13.6 2.9 2.6 1.0 1.1 2.2 0.5 1.0 0.2 1.9 0.3 1.5 2.5 7.7 5.3 1.9 3.4 3.9 3.9 3.0 9.9 6.2 7.2 3.7 3.7 2.6 1.6 0.5 0.6 1.2 0.7 0.8 2.6 0.9 1.2 4.7 24.4 27.2 15.0 8.5 5.1 1.5 0.6 11.1 6.8 3.3 1.4 1.6 2.9 4.5 8.3 11.5 15.6 13.6 11.5 20.2 13.4 20.0 16.7 31.1 7.5 0.9 1.3 0.1 0.2 0.0 0.2 0.1 0.0 2.4 2.2 0.1 0.0 0.0 0.0 0.0 0.0
12.7 12.4 4.3 0.1 0.0 0.7 11.7 66.4 65.7 35.9 22.5 13.5 4.4 4.9 1.7 2.3 3.0 3.7 2.3 1.1 2.2 2.2 1.8 2.5 1.8 1.3 5.8 2.8 5.0 5.5 2.9 15.0 4.2 4.0 5.0 2.3 2.5 0.3 0.3 0.6 0.6 3.5 3.5 5.1 4.3 9.0 9.2 18.7 16.8 26.9 24.4 18.4 9.6 6.1 5.5 7.7 6.7 10.3 6.6 3.7 4.2 4.7 5.6 7.4 12.3 19.5 30.4 11.1 6.8 17.5 24.1 5.8 0.3 0.6 0.7 0.5 0.1 0.7 0.2 0.2 0.0 0.6 0.3 0.0 0.0 0.0 0.0 0.0
14.6 7.3 8.6 2.6 0.3 0.9 23.6 15.3 18.0 21.8 18.8 15.0 10.0 8.5 3.9 2.4 0.8 1.3 1.7 2.0 1.3 3.4 2.8 3.3 1.7 1.3 2.1 3.5 10.7 3.5 5.4 2.9 8.2 3.3 2.7 2.7 1.5 0.2 0.2 0.3 0.5 2.4 1.6 1.6 2.3 2.8 9.5 12.4 17.6 34.3 43.0 42.0 41.0 38.9 30.4 19.5 12.2 6.7 4.7 3.1 2.9 5.5 6.0 9.9 21.0 16.4 32.5 14.7 6.7 13.0 10.2 1.8 0.3 0.2 0.1 0.0 0.5 0.1 0.1 0.2 0.5 0.1 0.4 0.0 0.0 0.0 0.0 0.0
27.6 53.6 22.2 29.7 18.2 13.9 10.3 5.6 5.9 10.7 15.0 14.3 16.0 8.2 5.3 6.6 2.2 0.8 1.2 5.5 1.3 1.0 1.4 2.5 1.3 1.1 3.0 3.8 7.6 14.1 5.9 6.0 7.4 13.3 6.4 6.6 3.3 0.9 1.2 0.4 0.9 0.7 0.9 0.4 1.1 2.7 12.0 10.3 9.8 13.3 17.5 17.1 8.4 5.1 2.7 2.2 5.0 9.9 5.9 3.4 3.1 2.7 3.3 5.8 10.7 22.7 27.1 14.4 14.8 7.7 6.3 4.8 1.6 0.1 0.2 0.3 1.5 0.2 0.5 0.3 0.2 0.0 0.0 0.0 0.0 0.0 0.0 0.0
20.0 39.0 32.6 74.5 31.5 34.3 23.4 11.1 11.0 9.3 12.3 5.7 17.9 7.8 8.6 5.4 3.5 1.9 0.5 6.4 1.1 1.7 2.5 2.8 3.1 4.7 5.6 4.8 6.8 7.8 8.2 8.4 4.9 9.0 9.8 4.7 3.2 2.6 0.6 0.6 1.1 0.6 0.4 1.7 2.9 5.2 21.0 17.9 10.2 8.7 8.8 7.2 4.8 7.0 1.2 1.0 3.9 3.2 3.5 3.1 1.7 1.8 2.8 7.6 16.1 19.2 6.8 13.9 20.0 5.6 3.9 6.1 2.4 0.7 2.8 0.7 1.6 0.7 0.7 0.1 0.0 0.0 0.0 0.0 0.0 0.1 0.0 0.0
55.9 22.7 10.8 11.8 33.1 69.6 43.6 33.3 13.6 12.5 9.4 11.8 12.0 7.9 7.6 7.1 6.9 8.9 2.8 1.8 2.7 3.4 6.0 8.9 6.6 3.9 3.4 4.5 5.9 12.7 8.6 11.8 9.0 7.0 3.8 5.0 5.3 4.0 4.0 0.4 0.8 0.3 0.6 2.1 1.1 6.1 22.0 21.7 8.6 6.6 8.0 5.0 3.6 2.4 1.0 1.0 1.5 2.3 2.1 2.3 2.4 1.6 1.9 7.6 8.5 5.3 5.5 17.3 17.7 4.2 2.1 3.3 1.6 1.7 2.1 0.9 0.3 0.3 0.1 0.1 0.1 0.1 0.0 0.1 0.1 0.1 0.0 0.0
20.6 18.1 15.3 8.1 22.1 17.5 10.5 7.6 7.3 8.8 11.4 10.1 17.7 12.9 13.4 9.9 8.7 4.1 4.8 5.6 3.9 7.9 4.3 13.3 6.3 3.7 3.9 5.7 7.7 10.8 9.3 19.0 18.2 10.6 8.7 8.2 8.0 7.4 8.5 5.5 1.0 0.2 0.7 3.7 3.7 5.4 14.6 19.8 10.3 6.7 10.2 6.6 3.6 2.1 1.5 1.7 1.6 1.9 2.7 2.0 1.4 1.4 1.8 2.4 2.7 2.6 4.0 6.7 4.5 3.4 2.0 1.3 2.0 1.6 1.3 2.5 1.2 2.2 1.5 0.1 0.1 0.1 0.0 0.0 0.0 0.0 0.0 0.0
37.3 30.3 30.0 11.5 18.5 15.2 9.7 7.5 5.5 9.0 16.5 9.1 27.5 16.5 12.3 9.3 9.7 5.5 4.3 5.7 12.8 7.0 5.1 8.0 6.5 5.9 5.6 5.8 7.7 10.5 6.9 5.7 7.9 11.3 6.3 7.4 10.9 6.6 7.1 4.7 5.9 4.2 2.2 6.4 7.5 7.2 11.6 20.4 5.6 7.5 12.9 12.8 5.6 2.7 1.6 1.7 2.2 3.4 1.9 1.6 1.3 1.1 1.4 1.5 1.8 2.0 1.9 2.7 2.1 3.1 4.6 2.0 1.2 1.2 0.7 0.5 0.3 0.1 0.1 0.1 0.1 0.0 0.0 0.0 0.0 0.0 0.0 0.0
10.7 8.6 16.4 32.9 39.0 24.3 17.0 14.4 14.0 13.4 20.2 14.2 19.5 11.9 10.8 7.4 8.0 5.0 6.0 5.1 6.7 9.7 7.9 8.4 7.5 8.4 10.2 9.3 10.2 8.1 6.9 8.5 9.1 9.7 7.5 9.4 15.0 9.4 11.4 11.3 4.6 9.0 6.9 9.1 9.3 13.1 10.1 20.8 9.0 11.6 21.7 17.0 6.1 5.2 3.4 3.5 4.1 4.9 4.3 3.1 3.6 3.2 4.0 1.7 3.1 1.5 2.1 2.4 1.4 1.5 4.2 2.0 1.3 0.6 0.4 0.1 0.1 0.0 0.0 0.1 0.1 0.0 0.0 0.0 0.0 0.0 0.0 0.0
9.0 5.7 12.4 25.3 52.3 25.0 27.2 16.0 15.6 21.9 39.9 13.9 9.8 9.3 11.0 7.6 5.5 6.8 11.8 5.6 3.7 5.5 6.2 7.3 10.6 13.5 16.1 12.3 11.1 8.8 7.5 7.8 8.0 6.6 6.2 6.5 5.2 6.2 5.8 5.4 4.7 8.0 13.6 11.1 12.7 22.0 19.4 22.5 21.8 19.6 30.7 23.2 6.2 3.6 4.3 5.4 9.0 14.5 10.7 2.4 1.7 1.3 0.4 0.6 0.4 0.4 0.6 0.6 2.1 3.9 3.7 3.5 2.1 1.0 0.7 0.8 0.8 1.0 0.7 0.2 0.2 0.3 0.1 0.1 0.1 0.0 0.0 0.0